User: anonymous   Login
Location: Thompson
(55.7500°N, 97.8670°W)
Time: 16:09:38
(UTC-05:00)
Language:

Cosmos 1833 Rocket - Orbit

View from above orbital plane
View from above orbital plane
View from above satellite
View from above satellite

Ground track
Ground track

The orbit data is extracted from the following two-line orbital elements,

1 17590U 87027B   16125.53429153 -.00000205  00000-0 -78518-4 0  9995
2 17590  71.0027 290.4766 0006464 224.7097 135.3506 14.16724234506240
Epoch (UTC): 04 May 2016 12:49:22
Eccentricity: 0.0006464
inclination: 71.0027°
perigee height: 832 km
apogee height: 841 km
right ascension of ascending node: 290.4766°
argument of perigee: 224.7097°
revolutions per day: 14.16724234
mean anomaly at epoch: 135.3506°
orbit number at epoch: 50624

The dashed part of the orbit path shows where the satellite is in the earth's shadow,  

DLR